Flag for Germany Weather past 2 weeks in Rüsselsheim, Hesse, Germany

Now
60 °F

More clouds than sun.


Feels Like: 57 °F
Forecast: 50 / 65 °F
Wind: 13 mph from West

Location: Wiesbaden Airport

Current Time: May 6, 2015 at 9:33:56 PM

Latest Report: May 6, 2015 at 8:58 PM


Visibility: N/A

Pressure: 29.99 "Hg

Humidity: 52%

Dew point: 42 °F

Location of RüsselsheimLocation

Historic Weather in Rüsselsheim — Graph

°F

Rüsselsheim temperature yesterday

Maximum temperature yesterday: 75 °F (at 1:58 PM)
Minimum temperature yesterday: 57 °F (at 11:58 PM)
Average temperature yesterday: 66 °F

Past Weeks' High & Low Weather Summary

 TemperatureHumidityPressure
High75 °F (May 5, 1:58 PM)100% (Apr 26, 1:58 AM)30.37 "Hg (Apr 26, 1:58 AM)
Low34 °F (Apr 29, 4:58 AM)35% (Apr 24, 4:58 PM)29.56 "Hg (May 5, 4:58 AM)
Average55 °F73%29.89 "Hg
* Reported Apr 21 7:58 PM — May 6 7:58 PM, Rüsselsheim, Weather by CustomWeather, © 2015

Note: Actual official high and low records may vary slightly from our data, if they occured in-between our weather recording intervals... More about our weather records

Advertising

Rüsselsheim weather history for previous 24 hours

 ConditionsComfort  
Time TempWeatherWind HumidityBarometerVisibility
7:58 PM
Wed, May 6
59 °FPassing clouds.12 mph56%29.97 "HgN/A
6:58 PM61 °FCloudy.16 mph52%29.96 "HgN/A
5:58 PM64 °FBroken clouds.21 mph43%29.93 "HgN/A
4:58 PM63 °FPartly sunny.25 mph45%29.93 "HgN/A
3:58 PM64 °FPassing clouds.20 mph46%29.95 "HgN/A
2:58 PM63 °FOvercast.16 mph49%29.96 "HgN/A
1:58 PM62 °FPartly sunny.16 mph48%29.96 "HgN/A
12:58 PM64 °FPartly sunny.18 mph46%29.96 "HgN/A
11:58 AM63 °FSunny.16 mph42%29.97 "HgN/A
10:58 AM60 °FPassing clouds.17 mph51%29.97 "HgN/A
9:58 AM59 °FPartly sunny.17 mph61%29.97 "HgN/A
8:58 AM57 °FSunny.14 mph72%29.97 "HgN/A
7:58 AM53 °FSunny.6 mph85%29.95 "HgN/A
6:58 AM50 °FPassing clouds.5 mph94%29.93 "HgN/A
5:58 AM49 °FClear.5 mph89%29.91 "HgN/A
4:58 AM48 °FPassing clouds.5 mph90%29.91 "HgN/A
3:58 AM46 °FClear.No wind93%29.90 "HgN/A
2:58 AM48 °FPassing clouds.No wind87%29.90 "HgN/A
1:58 AM50 °FClear.2 mph82%29.90 "HgN/A
12:58 AM54 °FPassing clouds.3 mph72%29.89 "HgN/A
11:58 PM
Tue, May 5
57 °FClear.7 mph60%29.88 "HgN/A
10:58 PM63 °FOvercast.14 mph49%29.87 "HgN/A
9:58 PM63 °FPassing clouds.12 mph52%29.84 "HgN/A
Weather by CustomWeather, © 2015

See weather overviewHow to use our weather pages